Showing default

COSMOS 2526, 43432

Orbit data source: Space-Track

COSMOS 2526, 43432 is a Commonwealth of Independent States-origin payload satellite in GEO that was launched on Wed, 18 Apr 2018 UTC via a PROTON-M/BRIZ-M launch vehicle from the Tyuratam Missile And Space Complex (TTMTR). Payload-class satellites include a variety of spacecraft equipped with specific instruments for various scientific and technological missions. These include communications satellites like Starlink; space stations such as the ISS; scientific satellites like the Hubble; Earth observation satellites from companies like Planet Labs, Umbra, and HawkEye 360; GPS; miniature CubeSats for education and research; and military/defense satellites.

Not visible in the next 10 days
Identifier
43432, 2018-037A
Orbit
GEO
Country
Flag of CISCIS
Related business
Manufacturer
Resehetnev ISS
Mission
Operational Defense Communications
Bus & Motor
EKSPRESS-2000?, AOCS
Mass
3,162 kg wet, ~2,000 kg dry
Launch date (UTC)
2018-04-18 (8 years ago)
Launch vehicle
PROTON-M/BRIZ-M
Launch site
Tyuratam Missile And Space Complex (TTMTR)
Object type
Payload
Rocket body
Debris
Shape & HBR
Cyl + 2 Pan, 13.5 m
Radar Cross Section
24.423 m², Large (>1 m²)

Expand to show TLE details & history
Last TLE update: 2 days ago

TLE from 2 days ago
0 COSMOS 2526
1 43432U 18037A   25306.64460421 -.00000331  00000-0  00000-0 0  9996
2 43432   0.0219 115.2885 0000413  45.1176 241.9027  1.00279838 27699
Epoch: 2025-11-02T15:28Z
TLE epoch observation values (Epoch: 2025-11-02T15:28:13.803Z)
Latitude
0.00083°
Longitude
128.05048°
Altitude
35,784.656 km
Speed
3.075 km/s
True Right ascension
02h 49m 03s
True Declination
0° 00' 03"
Sunlit
Object was in daylight at epoch
Visualization orbit readout
Latitude
Unknown
Longitude
Unknown
Altitude
Unknown
Speed
Unknown
Apparent Right ascension
Unknown
Apparent Declination
Unknown
Sunlit
N/A
Visualization observer readout
Local Sidereal Time
08:45:26
Azimuth
Unknown
Elevation
Unknown
Doppler factor
Unknown
Orbital elements
Apogee altitude
35,787.149 km
Perigee altitude
35,783.667 km
Semi-major axis
42,163.545 km
Eccentricity
0.00004
Inclination
0.0219°
RAAN
115.2885°
Arg. of periapsis
45.1176°
True anomaly
241.89853°
Mean anomaly
241.9027°
Eccentric anomaly
241.90061°
Mean motion
0.25069 °/min
Orbital period
1,436.03 mins
BSTAR
0
Loading maneuver chart data...
Computing Atmospheric mass density...
Loading historical data...
Loading historical data...
Loading historical data...
Loading historical data...
Loading historical data...
Loading historical data...
Loading historical data...
Other satellites on launch #37 in the year 2018 (2018-04-18 UTC)

Documentation

Showing up to 5 results
|